カタログに戻る

BREEZE-KM DEB

運用中PO
NORAD 41722·DEBRIS·🇷🇺 Russia

打ち上げ Mar 31, 2015 から Plesetsk Cosmodrome

Loading…

次のパス (今後24時間)

TLE

最新Source: Space-Track

元期: Sep 13, 2026, 02:21 UTC

1 41722U 15020K   26256.09846466  .00000035  00000-0  11326-3 0  9992
2 41722  82.4923 199.1663 0180063   9.9403 350.5177 12.70541266502968

AllMySatでBREEZE-KM DEBをリアルタイム追跡

Download on the App Store